Hourly Data Report for January 15, 2022

TORONTO CITY
ONTARIO
Current Station Operator: ECCC - MSC

43°40'00.000" N
79°24'00.000" W
112.50 m
6158355
71508
XTO

Download Data

Hourly Data (January 2022)
Hourly Data Report for January 15, 2022
TIME
LST
Temp Definition
°C
Dew Point Definition
°C
Rel Hum Definition
%
Precip. Amount Definition
mm

Wind Dir Definition
10's deg

Wind Spd Definition
km/h
Visibility Definition
km
Stn Press Definition
kPa
Hmdx Definition


Wind Chill Definition


Weather Definition


00:00 -17.3 -25.6 48 0.0       101.58     LegendNANA
01:00 -18.1 -26.1 50 0.0       101.64     LegendNANA
02:00 -18.8 -26.3 51 0.0       101.66     LegendNANA
03:00 -19.2 -26.6 52 0.0       101.67     LegendNANA
04:00 -19.8 -27.4 51 0.0       101.74     LegendNANA
05:00 -19.9 -27.4 51 0.0       101.79     LegendNANA
06:00 -20.1 -27.4 52 0.0       101.88     LegendNANA
07:00 -20.2 -27.6 52 0.0       101.90     LegendNANA
08:00 -20.2 -28.0 50 0.0       101.95     LegendNANA
09:00 -19.7 -28.0 48 0.0       102.03     LegendNANA
10:00 -18.8 -27.7 46 0.0       102.10     LegendNANA
11:00 -17.7 -27.6 42 0.0       102.04     LegendNANA
12:00 -16.0 -27.0 38 0.0       101.97     LegendNANA
13:00 -14.8 -26.9 35 0.0       101.92     LegendNANA
14:00 -13.2 -27.4 29 0.0       101.87     LegendNANA
15:00 -13.0 -26.9 30 0.0       101.81     LegendNANA
16:00 -12.9 -26.4 31 0.0       101.80     LegendNANA
17:00 -13.0 -25.6 34 0.0       101.77     LegendNANA
18:00 -13.3 -26.0 34 0.0       101.77     LegendNANA
19:00 -13.7 -24.1 41 0.0       101.77     LegendNANA
20:00 -14.5 -23.9 45 0.0       101.78     LegendNANA
21:00 -14.9 -23.4 48 0.0       101.76     LegendNANA
22:00 -14.9 -23.1 50 0.0       101.70     LegendNANA
23:00 -14.5 -22.1 52 0.0       101.62     LegendNANA

Notes on Data Quality.

Legend

  • E = Estimated
  • M = Missing
  • NA = Not Available*
  • [empty] = Indicates an unobserved value
Date modified: